GSAT-29

Last updated on Tue Sep 16 2025 00:02:49 GMT+0000 (Coordinated Universal Time)

1 43698U 18089A 25258.59549600 .00000068 00000+0 00000+0 0 9998 2 43698 0.0239 239.2593 0001470 305.0441 79.9131 1.00273506 25043
UTC large
Height (km)
Speed (km/s)
/
Latitude / Longitude
Inclination (degrees)
Orbital Period (minutes)
Azimuth
Elevation
Range (km)
Doppler Factor

Next 0 passes for location: London (51.5072 / 0.1276)

Sorry there are no passes over London.